STARLINK-1107, 44972

Orbit data source: Space-Track

STARLINK-1107, 44972 is a payload satellite owned by SpaceX/Seattle (US) in LEO that was launched on Tue, 07 Jan 2020 UTC via an FALCON 9 launch vehicle from the Air Force Eastern Test Range (AFETR). Payload-class satellites include a variety of spacecraft equipped with specific instruments for various scientific and technological missions. These include communications satellites like Starlink; space stations such as the ISS; scientific satellites like the Hubble; Earth observation satellites from companies like Planet Labs, Umbra, and HawkEye 360; GPS; miniature CubeSats for education and research; and military/defense satellites.

Loading next visibility...
Identifier
44972, 2020-001BL
Orbit
LEO
Country
Flag of USUS
Related business
Manufacturer
SpaceX/Seattle
Mission
Partially operational Commercial Communications
Bus & Motor
STARLINK, Unknown motor
Mass
260 kg wet, ~248 kg dry
Launch date (UTC)
2020-01-07 (6 years ago)
Launch vehicle
FALCON 9
Launch site
Air Force Eastern Test Range (AFETR)
Object type
Payload
Rocket body
Debris
Shape & HBR
Box + 1 Pan, 4.4 m
Radar Cross Section
13.562 m², Large (>1 m²)

Expand to show TLE details & history
Last TLE update: 16 hours ago

TLE from 16 hours ago
0 STARLINK-1107
1 44972U 20001BL  25242.67860798  .00092881  00000-0  15208-2 0  9991
2 44972  53.0160  21.8934 0004307 339.9979  20.0860 15.51741621312491
Epoch: 2025-08-30T16:17Z
TLE epoch observation values (Epoch: 2025-08-30T16:17:11.729Z)
Latitude
-0°
Longitude
158.48508°
Altitude
409.787 km
Speed
7.668 km/s
True Right ascension
01h 27m 34s
True Declination
0° 00' 00"
Sunlit
Object was in full shadow at epoch
Visualization orbit readout
Latitude
Unknown
Longitude
Unknown
Altitude
Unknown
Speed
Unknown
Apparent Right ascension
Unknown
Apparent Declination
Unknown
Sunlit
N/A
Visualization observer readout
Local Sidereal Time
00:12:23
Azimuth
Unknown
Elevation
Unknown
Doppler factor
Unknown
Orbital elements
Apogee altitude
414.848 km
Perigee altitude
408.999 km
Semi-major axis
6,790.06 km
Eccentricity
0.00043
Inclination
53.016°
RAAN
21.8934°
Arg. of periapsis
339.9979°
True anomaly
20.10296°
Mean anomaly
20.086°
Eccentric anomaly
20.09448°
Mean motion
3.87912 °/min
Orbital period
92.8 mins
BSTAR
0.0015208
Loading maneuver chart data...
Computing Atmospheric mass density...

Documentation

Showing up to 5 results
|